When you browse on this site, cookies collect data to enhance your experience and personalize the content and advertising you see.
Visit our Privacy Policy to learn more. By continuing to use the site, you agree to this use of cookies and data.
  • In Lithuania
  • List of Countries
  • For 7 days
  • Water Temperature
  • Satellite Maps
  • Weather Map
  • Weather Widgets
  • user-avatar
    Login

    Hourly Weather Batina

    Today, 23 May, Thursday

    Time Temperature Precipitation Wind Pressure Humidity
    00:00 +14°C° 0 mm 1 mps 671 mmHg 73%
    01:00 +14°C° 0 mm 1 mps 671 mmHg 74%
    02:00 +13°C° 0 mm 0 mps 671 mmHg 75%
    03:00 +12°C° 0 mm 0 mps 671 mmHg 76%
    04:00 +13°C° 0 mm 0 mps 671 mmHg 72%
    05:00 +15°C° 0 mm 1 mps 672 mmHg 67%
    06:00 +16°C° 0 mm 1 mps 672 mmHg 63%
    07:00 +18°C° 0 mm 1 mps 672 mmHg 57%
    08:00 +19°C° 0 mm 2 mps 673 mmHg 52%
    09:00 +20°C° 0 mm 3 mps 674 mmHg 46%
    10:00 +21°C° 0 mm 3 mps 674 mmHg 42%
    11:00 +22°C° 0 mm 4 mps 674 mmHg 37%
    12:00 +23°C° 0 mm 5 mps 674 mmHg 33%
    13:00 +25°C° 0 mm 5 mps 673 mmHg 31%
    14:00 +25°C° 0 mm 5 mps 673 mmHg 30%
    15:00 +26°C° 0 mm 5 mps 673 mmHg 28%
    16:00 +25°C° 0 mm 5 mps 673 mmHg 31%
    17:00 +23°C° 0 mm 5 mps 672 mmHg 34%
    18:00 +23°C° 0 mm 4 mps 672 mmHg 37%
    19:00 +21°C° 0 mm 3 mps 672 mmHg 43%
    20:00 +20°C° 0 mm 2 mps 672 mmHg 49%
    21:00 +20°C° 0 mm 1 mps 672 mmHg 55%
    22:00 +19°C° 0 mm 1 mps 671 mmHg 56%
    23:00 +19°C° 0 mm 1 mps 671 mmHg 57%

    Tomorrow, 24 May, Friday

    Time Temperature Precipitation Wind Pressure Humidity
    00:00 +19°C° 0 mm 1 mps 671 mmHg 59%
    01:00 +18°C° 0 mm 2 mps 670 mmHg 60%
    02:00 +18°C° 0 mm 2 mps 670 mmHg 60%
    03:00 +18°C° 0 mm 2 mps 670 mmHg 61%
    04:00 +18°C° 0 mm 2 mps 670 mmHg 59%
    05:00 +18°C° 0 mm 3 mps 670 mmHg 56%
    06:00 +19°C° 0 mm 3 mps 670 mmHg 54%
    07:00 +21°C° 0 mm 5 mps 671 mmHg 50%
    08:00 +22°C° 0 mm 6 mps 671 mmHg 46%
    09:00 +24°C° 0 mm 8 mps 671 mmHg 42%
    10:00 +26°C° 0 mm 9 mps 671 mmHg 40%
    11:00 +26°C° 0 mm 9 mps 671 mmHg 38%
    12:00 +27°C° 0 mm 10 mps 670 mmHg 36%
    13:00 +27°C° 0 mm 9 mps 670 mmHg 36%
    14:00 +27°C° 0 mm 8 mps 669 mmHg 36%
    15:00 +26°C° 0 mm 7 mps 669 mmHg 36%
    16:00 +23°C° 2.4 mm 7 mps 668 mmHg 46%
    17:00 +21°C° 2.4 mm 6 mps 667 mmHg 55%
    18:00 +19°C° 2.4 mm 5 mps 666 mmHg 65%
    19:00 +19°C° 1.2 mm 4 mps 666 mmHg 67%
    20:00 +18°C° 1.2 mm 3 mps 667 mmHg 68%
    21:00 +18°C° 1.2 mm 2 mps 667 mmHg 69%
    22:00 +18°C° 1.1 mm 2 mps 667 mmHg 71%
    23:00 +19°C° 1.1 mm 1 mps 667 mmHg 73%

    Day after tomorrow, 25 May, Saturday

    Time Temperature Precipitation Wind Pressure Humidity
    00:00 +19°C° 1.1 mm 1 mps 666 mmHg 75%
    01:00 +19°C° 1.3 mm 1 mps 666 mmHg 75%
    02:00 +19°C° 1.3 mm 1 mps 666 mmHg 75%
    03:00 +18°C° 1.3 mm 2 mps 666 mmHg 76%
    04:00 +19°C° 0.7 mm 1 mps 666 mmHg 75%
    05:00 +19°C° 0.7 mm 1 mps 666 mmHg 75%
    06:00 +19°C° 0.7 mm 1 mps 666 mmHg 74%
    07:00 +19°C° 0.7 mm 1 mps 666 mmHg 71%
    08:00 +18°C° 0.7 mm 2 mps 666 mmHg 68%
    09:00 +19°C° 0.7 mm 2 mps 667 mmHg 65%
    10:00 +19°C° 1.5 mm 2 mps 666 mmHg 66%
    11:00 +18°C° 1.5 mm 2 mps 666 mmHg 67%
    12:00 +18°C° 1.5 mm 2 mps 666 mmHg 68%
    13:00 +18°C° 2.2 mm 2 mps 666 mmHg 69%
    14:00 +18°C° 2.2 mm 3 mps 666 mmHg 71%
    15:00 +17°C° 2.2 mm 3 mps 665 mmHg 72%
    16:00 +16°C° 1.4 mm 3 mps 665 mmHg 74%
    17:00 +15°C° 1.4 mm 4 mps 665 mmHg 77%
    18:00 +14°C° 1.4 mm 4 mps 665 mmHg 79%
    19:00 +13°C° 0.1 mm 4 mps 666 mmHg 81%
    20:00 +13°C° 0.1 mm 4 mps 666 mmHg 82%
    21:00 +12°C° 0.1 mm 4 mps 666 mmHg 84%
    22:00 +12°C° 0 mm 4 mps 666 mmHg 84%
    23:00 +11°C° 0 mm 4 mps 666 mmHg 84%

    26 May, Sunday

    Time Temperature Precipitation Wind Pressure Humidity
    00:00 +11°C° 0 mm 3 mps 665 mmHg 84%
    01:00 +11°C° 0 mm 3 mps 665 mmHg 84%
    02:00 +11°C° 0 mm 3 mps 665 mmHg 85%
    03:00 +10°C° 0 mm 3 mps 665 mmHg 85%
    04:00 +10°C° 0 mm 3 mps 665 mmHg 84%
    05:00 +10°C° 0 mm 3 mps 665 mmHg 83%
    06:00 +10°C° 0 mm 3 mps 665 mmHg 82%
    07:00 +11°C° 0 mm 3 mps 666 mmHg 78%
    08:00 +12°C° 0 mm 4 mps 666 mmHg 73%
    09:00 +13°C° 0 mm 4 mps 667 mmHg 69%
    10:00 +13°C° 0 mm 4 mps 667 mmHg 68%
    11:00 +13°C° 0 mm 4 mps 667 mmHg 67%
    12:00 +13°C° 0 mm 4 mps 667 mmHg 67%
    13:00 +14°C° 0 mm 5 mps 667 mmHg 64%
    14:00 +15°C° 0 mm 6 mps 667 mmHg 62%
    15:00 +15°C° 0 mm 6 mps 667 mmHg 59%
    16:00 +15°C° 0 mm 6 mps 667 mmHg 60%
    17:00 +15°C° 0 mm 6 mps 667 mmHg 61%
    18:00 +14°C° 0 mm 6 mps 667 mmHg 62%
    19:00 +13°C° 0 mm 5 mps 667 mmHg 67%
    20:00 +12°C° 0 mm 3 mps 668 mmHg 72%
    21:00 +12°C° 0 mm 2 mps 668 mmHg 77%
    22:00 +12°C° 0 mm 2 mps 668 mmHg 78%
    23:00 +12°C° 0 mm 2 mps 667 mmHg 80%

    27 May, Monday

    Time Temperature Precipitation Wind Pressure Humidity
    00:00 +10°C° 0 mm 2 mps 667 mmHg 82%
    01:00 +10°C° 0 mm 2 mps 667 mmHg 83%
    02:00 +10°C° 0 mm 2 mps 667 mmHg 83%
    03:00 +10°C° 0 mm 2 mps 667 mmHg 84%
    04:00 +10°C° 0 mm 3 mps 667 mmHg 81%
    05:00 +10°C° 0 mm 3 mps 667 mmHg 78%
    06:00 +11°C° 0 mm 3 mps 668 mmHg 74%
    07:00 +12°C° 0 mm 4 mps 668 mmHg 72%
    08:00 +13°C° 0 mm 4 mps 669 mmHg 70%
    09:00 +14°C° 0 mm 4 mps 669 mmHg 68%
    10:00 +15°C° 0 mm 4 mps 669 mmHg 65%
    11:00 +16°C° 0 mm 3 mps 669 mmHg 63%
    12:00 +17°C° 0 mm 3 mps 669 mmHg 61%
    13:00 +17°C° 0 mm 3 mps 669 mmHg 58%
    14:00 +18°C° 0 mm 3 mps 669 mmHg 54%
    15:00 +19°C° 0 mm 3 mps 669 mmHg 51%
    16:00 +18°C° 0 mm 3 mps 669 mmHg 52%
    17:00 +18°C° 0 mm 3 mps 669 mmHg 52%
    18:00 +18°C° 0 mm 3 mps 669 mmHg 53%
    19:00 +17°C° 0 mm 2 mps 669 mmHg 57%
    20:00 +16°C° 0 mm 1 mps 670 mmHg 62%
    21:00 +15°C° 0 mm 1 mps 670 mmHg 66%
    22:00 +15°C° 0 mm 1 mps 669 mmHg 67%
    23:00 +14°C° 0 mm 1 mps 669 mmHg 68%

    28 May, Tuesday

    Time Temperature Precipitation Wind Pressure Humidity
    00:00 +14°C° 0 mm 1 mps 669 mmHg 69%
    01:00 +14°C° 0 mm 1 mps 669 mmHg 68%
    02:00 +14°C° 0 mm 1 mps 669 mmHg 67%
    03:00 +14°C° 0 mm 1 mps 668 mmHg 66%
    04:00 +15°C° 0 mm 2 mps 669 mmHg 61%
    05:00 +16°C° 0 mm 2 mps 669 mmHg 56%
    06:00 +17°C° 0 mm 2 mps 670 mmHg 52%
    07:00 +18°C° 0 mm 4 mps 670 mmHg 47%
    08:00 +20°C° 0 mm 5 mps 671 mmHg 42%
    09:00 +22°C° 0 mm 6 mps 671 mmHg 37%
    10:00 +22°C° 0 mm 6 mps 671 mmHg 35%
    11:00 +23°C° 0 mm 7 mps 671 mmHg 33%
    12:00 +24°C° 0 mm 7 mps 671 mmHg 31%
    13:00 +24°C° 0 mm 7 mps 670 mmHg 31%
    14:00 +24°C° 0 mm 7 mps 670 mmHg 31%
    15:00 +24°C° 0 mm 6 mps 670 mmHg 31%
    16:00 +24°C° 0 mm 6 mps 670 mmHg 32%
    17:00 +23°C° 0 mm 6 mps 670 mmHg 33%
    18:00 +23°C° 0 mm 5 mps 669 mmHg 34%
    19:00 +22°C° 0 mm 4 mps 670 mmHg 37%
    20:00 +21°C° 0 mm 3 mps 670 mmHg 40%
    21:00 +20°C° 0 mm 2 mps 670 mmHg 43%
    22:00 +19°C° 0 mm 2 mps 669 mmHg 46%
    23:00 +18°C° 0 mm 2 mps 669 mmHg 49%
    Show more